Location: Eyeline Observatory
(43.2182°N, 78.8632°W)
Time: 10:12:29
(UTC-04:00)

Vanguard 1 Rocket - All Passes

Search period start: 20 October 2017 00:00
Search period end: 30 October 2017 00:00
Orbit: 655 x 4222 km, 34.3° (Epoch: 19 October)

Date Brightness Start Highest point End Pass type
(mag) Time Alt. Az. Time Alt. Az. Time Alt. Az.
20 Oct - 06:56:23 10° SSW 07:02:09 18° SSE 07:06:19 10° ESE visible
20 Oct - 09:21:42 10° SW 09:27:03 29° S 09:31:03 10° ESE daylight
20 Oct - 11:47:32 10° WSW 11:51:11 23° SSW 11:54:51 10° SE daylight
21 Oct - 05:45:40 10° S 05:50:51 14° SSE 05:54:51 10° SE visible
21 Oct - 08:09:54 10° SW 08:16:22 28° S 08:20:46 10° ESE daylight
21 Oct - 10:36:15 10° WSW 10:40:46 29° S 10:44:36 10° SE daylight
21 Oct - 13:02:42 10° SW 13:04:50 13° SSW 13:07:06 10° S daylight
22 Oct - 04:37:46 10° SSE 04:39:12 10° SSE 04:40:33 10° SE visible
22 Oct - 06:57:55 10° SW 07:05:25 25° SSE 07:10:21 10° ESE visible
22 Oct - 09:24:32 10° WSW 09:30:17 32° S 09:34:26 10° ESE daylight
22 Oct - 11:51:01 10° WSW 11:54:21 19° SSW 11:57:36 10° SSE daylight
23 Oct - 05:46:04 10° SSW 05:54:07 21° SSE 05:59:33 10° ESE visible
23 Oct - 08:12:22 10° SW 08:19:37 33° S 08:24:17 10° ESE daylight
23 Oct - 10:39:26 10° WSW 10:43:57 27° SSW 10:47:43 10° SE daylight
24 Oct - 04:34:59 10° S 04:42:27 16° SSE 04:47:55 10° ESE visible
24 Oct - 06:59:51 10° SW 07:08:39 31° S 07:14:04 10° ESE visible
24 Oct - 09:27:28 10° WSW 09:33:30 34° S 09:37:44 10° ESE daylight
24 Oct - 11:54:45 10° WSW 11:57:27 15° SSW 12:00:03 10° SSE daylight
25 Oct - 03:26:25 10° SSE 03:30:23 11° SSE 03:33:50 10° SE visible
25 Oct - 05:47:16 10° SW 05:57:21 27° SSE 06:03:36 10° ESE visible
25 Oct - 08:14:59 10° WSW 08:22:51 37° S 08:27:43 10° ESE daylight
25 Oct - 10:42:42 10° WSW 10:47:05 24° SSW 10:50:42 10° SE daylight
26 Oct - 04:35:02 10° SSW 04:45:39 23° SSE 04:52:35 10° ESE visible
26 Oct - 07:02:03 10° SW 07:11:53 37° S 07:17:37 10° ESE visible
26 Oct - 09:30:28 10° WSW 09:36:40 33° SSW 09:40:58 10° SE daylight
26 Oct - 11:59:11 10° SW 12:00:28 11° SSW 12:01:43 10° SSW daylight
27 Oct - 03:23:53 10° S 03:33:32 17° SSE 03:40:32 10° ESE visible
27 Oct - 05:48:52 10° SW 06:00:34 34° SSE 06:07:19 10° ESE visible
27 Oct - 08:17:43 10° WSW 08:26:02 40° S 08:31:05 10° ESE daylight
27 Oct - 10:46:04 10° WSW 10:50:09 20° SSW 10:53:30 10° SSE daylight
28 Oct - 02:15:51 10° SSE 02:21:04 12° SE 02:25:35 10° SE visible
28 Oct - 04:35:51 10° SSW 04:48:49 29° SSE 04:56:37 10° ESE visible
28 Oct - 07:04:26 10° WSW 07:15:06 42° S 07:21:04 10° ESE visible
28 Oct - 09:33:31 10° WSW 09:39:48 31° SSW 09:44:07 10° SE daylight
29 Oct - 03:23:31 10° SSW 03:36:38 24° SSE 03:45:15 10° ESE visible
29 Oct - 05:50:46 10° SW 06:03:45 40° S 06:10:52 10° ESE visible
29 Oct - 08:20:31 10° WSW 08:29:12 41° S 08:34:23 10° ESE daylight
29 Oct - 10:49:39 10° WSW 10:53:07 16° SSW 10:56:02 10° S daylight
